Regional Weather Roundup
Issued by NWS

Home | Current Version | Previous Version | Graphics & Text | Print | Product List | Glossary On
Versions: 1 2 3 4 5 6 7 8 9 10 11 12 13 14 15 16 17 18 19 20 21 22 23 24 25 26 27
000
ASUS45 KBOU 260307
RWRCO

WEATHER ROUNDUP FOR COLORADO
NATIONAL WEATHER SERVICE DENVER/BOULDER CO
900 PM MDT MON JUL 25 2016

NOTE: "FAIR" INDICATES FEW OR NO CLOUDS BELOW 12000 FEET WITH NO
SIGNIFICANT WEATHER AND/OR OBSTRUCTIONS TO VISIBILITY.

COZ001>005-013-030-031-260400-
...NORTHWEST COLORADO...

CITY           SKY/WX    TMP DP  RH WIND       PRES   REMARKS
CRAIG          MOCLDY    79  34  19 E12       30.23R
HAYDEN         FAIR      75  34  22 W8        30.26S
MEEKER         FAIR      75  41  29 S6        30.24R
MOUNT WERNER   NOT AVBL
STEAMBOAT SPGS FAIR      77  31  19 N9G16     30.27F
WALDEN         FAIR      66  27  22 W8        30.38S
$$

COZ006>008-011-260400-
...WEST CENTRAL VALLEYS...

CITY           SKY/WX    TMP DP  RH WIND       PRES   REMARKS
GRAND JUNCTION FAIR      87  39  18 W18G28    30.13R
MONTROSE       FAIR      79  43  27 S8        30.21R
EAGLE          FAIR      77  36  22 E8        30.25R
RIFLE          FAIR      84  39  20 NW5       30.15R
DELTA          FAIR      85  41  20 CALM      30.15S
NUCLA          FAIR     N/A N/A N/A CALM      30.25S
$$

COZ017>023-064>068-260400-
...SOUTHWEST COLORADO...

CITY           SKY/WX    TMP DP  RH WIND       PRES   REMARKS
DURANGO        MOCLDY    73  48  41 NE10      30.30R
CORTEZ         FAIR      80  44  27 NW8       30.20R
PAGOSA SPRINGS MOCLDY    72  44  36 CALM      30.40R
TELLURIDE      MOCLDY    64  45  49 CALM      30.51R
WOLF CREEK PAS CLOUDY    50  39  66 SW17      30.75R
$$

COZ009-010-012-014-032>034-037-058>063-260400-
...CENTRAL COLORADO...

CITY           SKY/WX    TMP DP  RH WIND       PRES   REMARKS
ASPEN          FAIR      63  45  51 S9        30.35R
BUENA VISTA    FAIR      72  31  22 W10       30.36S
COPPER MTN     FAIR      59  21  23 NW5       30.73S
BERTHOUD PASS  FAIR      50  36  57 N8        30.76S
COTTONWOOD PAS FAIR      68  27  21 W9        30.54S
GUNNISON       FAIR      66  46  48 CALM      30.40S
KREMMLING      FAIR      70  30  23 CALM      30.32R
LEADVILLE      FAIR      58  34  40 SE5       30.52F
MONARCH PASS   CLOUDY    54  30  40 MISG      30.83R
SALIDA         FAIR      74  39  28 SW8       30.41R
SUNLIGHT       FAIR      63  34  34 CALM      30.64S
WILKERSON PASS FAIR      57  28  33 SW5       30.68R
$$

COZ069>075-260400-
...SAN LUIS VALLEY/SANGRE DE CRISTO MOUNTAINS...

CITY           SKY/WX    TMP DP  RH WIND       PRES   REMARKS
ALAMOSA        FAIR      70  47  43 S9        30.34R
LA VETA PASS   FAIR      54  46  76 NE8       30.61R
SAGUACHE       FAIR      72  36  26 NW12      30.37R
$$

COZ035-036-038>040-260400-
...NORTHERN COLORADO FRONT RANGE...

CITY           SKY/WX    TMP DP  RH WIND       PRES   REMARKS
DENVER INTL AP FAIR      77  46  33 S16       30.14R
DMNS CITY PARK   N/A     78  44  29 S5G15     30.13R
AURORA         PTCLDY    77  44  31 S23G29    30.15S
FRONT RANGE AP PTCLDY    79  48  34 S13G26    30.15R
ERIE MUNI ARPT FAIR      81  44  27 S10       30.12R
BOULDER MUN AP FAIR      77  59  53 S5        30.12R
CENTENNIAL     FAIR      75  42  30 S20       30.18R
BROOMFIELD     MOCLDY    79  46  31 S9        30.16R
LONGMONT       FAIR      81  57  44 CALM      30.12R
$$

COZ041-046-047-076>085-087-088-260400-
...PIKES PEAK/PALMER DIVIDE AND SOUTHERN FOOTHILLS...

CITY           SKY/WX    TMP DP  RH WIND       PRES   REMARKS
COLO. SPRINGS  MOCLDY    68  53  58 SE18      30.33R
A. F. ACADEMY  CLOUDY    69  48  47 S8        30.33R
SCHRIEVER AFB  NOT AVBL
ELLICOTT       FAIR     N/A N/A N/A S9        30.29R
FALCON         FAIR      66  48  51 S15       30.36R
FORT CARSON    FAIR      67  55  64 SE18      30.29R
LIMON          NOT AVBL
MONUMENT HILL  FAIR      64  43  45 S15       30.33R
TRINIDAD       NOT AVBL
$$

COZ042>045-048>051-090-091-260400-
...NORTHEAST COLORADO...

CITY           SKY/WX    TMP DP  RH WIND       PRES   REMARKS
GREELEY ARPT   FAIR      75  52  43 SE6       30.10R
AKRON          FAIR      72  61  68 SE13      30.14S
BURLINGTON     FAIR      73  63  70 SE8       30.15R
WRAY           NOT AVBL
STERLING       FAIR      73  64  73 SE7       30.08S
HOLYOKE        FAIR      73  66  78 W5        30.11S
FORT MORGAN    FAIR      73  60  65 E9        30.12R
$$

COZ086-089-092>099-260400-
...SOUTHEAST COLORADO...

CITY           SKY/WX    TMP DP  RH WIND       PRES   REMARKS
PUEBLO         FAIR      70  60  70 NE9       30.21R
LA JUNTA       TSTM      64  57  78 N12       30.30R
LAMAR          FAIR      78  64  61 SE8       30.14R
SPRINGFIELD      N/A     75  64  68 E9        30.18R
$$




USA.gov is the U.S. government's official web portal to all federal, state and local government web resources and services.